Tracking 30970 objects as of 3-Jul-2025
HD Live streaming from Space Station
objects crossing your sky now

CRRES DEB (CANISTER)

Track CRRES DEB (CANISTER) now!


NORAD ID: 21590
Int'l Code: 1990-065F
Perigee: 353.8 km
Apogee: 30,733.4 km
Inclination: 20.1 °
Period: 538.1 minutes
Semi major axis: 21914 km
RCS: 0.1267 m2 (medium)
Launch date: July 25, 1990
Source: United States (US)
Launch site: AIR FORCE EASTERN TEST RANGE (AFETR)

Note: This is SATELLITE DEBRIS
Your satellite tracking list
Your tracking list is empty




NASA's NSSDC Master Catalog

Two Line Element Set (TLE):
1 21590U 90065F   25183.62888672  .00001038  00000-0  10748-2 0  9997
2 21590  20.1265 138.4072 6931363 359.4301 359.9441  2.67610017120262
Source of the keplerian elements: AFSPC